Temperature
9 8 6 7 7 8 8 8 8 8 8 7 6 6 6 6 6 6 5 5 4 3 3 3 2 2 2 2 2 3 3 3 3 4 4 4 4 4 5 5 5 5 6 6
8 6 7 7 7 7 7 7 7 7 7 6 5 5 6 6 5 5 4 4 3 3 2 2 2 2 1 2 2 2 2 2 3 3 3 3 3 4 4 4 5 5 5 5
7 6 7 7 6 7 6 6 6 6 5 5 4 4 5 5 5 4 3 3 3 2 1 1 1 1 1 1 1 1 2 2 2 2 3 3 3 3 3 4 4 4 4 5
6 6 6 6 5 5 5 5 5 5 4 4 5 3 5 4 4 3 3 2 2 1 1 1 1 0 0 0 1 1 1 1 1 2 2 2 2 2 3 3 3 3 4 4
5 5 5 5 5 4 4 4 4 4 3 3 4 3 4 4 3 2 2 2 2 1 1 0 0 -0 -0 -0 0 0 1 1 1 1 1 1 1 1 2 2 2 3 3 3
5 4 4 4 4 4 4 4 4 3 3 2 3 3 3 2 2 2 1 1 1 1 0 0 -0 -0 -0 -0 -0 -0 0 0 0 1 1 1 1 1 1 1 2 2 2 3
5 4 3 3 3 3 3 3 3 3 3 3 4 3 2 2 1 1 1 1 1 0 -0 -0 -0 -1 -1 -1 -1 -1 -1 -0 -0 -0 0 0 0 0 0 1 1 1 2 2
5 4 3 2 2 2 2 3 2 3 4 4 3 2 2 1 1 1 0 0 -0 -0 -1 -1 -1 -1 -1 -2 -2 -1 -1 -1 -1 -1 -1 -0 -0 -0 -0 -0 0 0 1 1
4 4 2 2 2 2 2 2 2 1 2 1 2 2 1 1 -0 -0 -0 -1 -1 -1 -1 -2 -2 -2 -2 -2 -2 -2 -2 -2 -2 -1 -1 -1 -1 -1 -1 -1 -1 -0 -0 0
3 2 2 2 1 1 1 2 1 1 1 2 3 3 2 -1 -1 -1 -2 -1 -1 -2 -2 -2 -2 -2 -3 -3 -3 -3 -3 -3 -2 -2 -2 -2 -2 -1 -1 -1 -1 -1 -1 -1
2 1 1 1 0 0 0 0 0 1 1 1 1 2 1 -0 -1 -2 -2 -1 -2 -2 -3 -3 -3 -3 -3 -3 -3 -3 -3 -3 -3 -3 -3 -2 -2 -2 -2 -2 -2 -2 -1 -1
1 0 0 1 1 1 1 1 -0 -1 -0 0 -0 0 1 -1 -1 -1 -2 -2 -2 -3 -3 -3 -4 -4 -4 -4 -4 -4 -4 -4 -4 -4 -3 -3 -3 -3 -3 -3 -3 -2 -2 -2
0 -0 -0 1 -0 -1 -1 -0 -0 -1 -1 -1 -1 -0 -0 -1 -1 -1 -2 -2 -3 -3 -4 -4 -4 -5 -5 -5 -5 -5 -5 -5 -4 -4 -4 -4 -4 -4 -4 -3 -3 -3 -3 -3
0 -1 -1 1 1 -1 -2 -1 -1 -2 -3 -2 -1 -0 -1 -1 -2 -2 -2 -3 -3 -4 -4 -5 -5 -6 -6 -6 -6 -6 -5 -5 -5 -5 -5 -4 -4 -4 -4 -4 -4 -4 -3 -3
-1 -2 -1 -1 0 -0 -1 -1 -2 -3 -3 -2 -1 -1 -1 -2 -3 -3 -3 -3 -4 -4 -5 -5 -6 -6 -6 -6 -6 -6 -6 -6 -6 -5 -5 -5 -5 -5 -5 -5 -4 -4 -4 -4
-2 -2 -2 -2 -1 -1 -1 -1 -1 -2 -2 -2 -2 -2 -2 -2 -2 -3 -4 -4 -5 -5 -6 -6 -7 -7 -7 -7 -7 -7 -7 -6 -6 -6 -6 -6 -5 -5 -5 -5 -5 -5 -4 -4
-3 -3 -3 -2 -2 -2 -2 -2 -2 -3 -3 -3 -3 -3 -4 -4 -4 -4 -4 -5 -5 -6 -6 -7 -7 -7 -8 -8 -7 -7 -7 -7 -7 -6 -6 -6 -6 -6 -6 -6 -6 -5 -5 -5
-4 -4 -3 -3 -3 -3 -1 -3 -3 -3 -3 -4 -4 -5 -5 -5 -5 -5 -5 -6 -6 -7 -7 -7 -8 -8 -8 -8 -8 -8 -7 -7 -7 -7 -7 -6 -6 -6 -6 -6 -6 -6 -6 -5
-4 -4 -3 -3 -3 -2 -2 -4 -4 -4 -5 -5 -5 -5 -5 -5 -6 -5 -5 -6 -7 -7 -8 -8 -8 -8 -8 -8 -8 -8 -8 -8 -7 -7 -7 -7 -7 -7 -7 -7 -6 -6 -6 -6
-4 -4 -4 -3 -3 -3 -2 -5 -4 -5 -5 -5 -5 -6 -6 -6 -7 -7 -6 -7 -7 -8 -8 -8 -8 -8 -9 -9 -9 -8 -8 -8 -8 -8 -8 -8 -8 -7 -7 -7 -7 -7 -7 -7
-5 -5 -5 -4 -3 -3 -5 -5 -5 -5 -4 -5 -5 -6 -7 -7 -7 -7 -7 -8 -8 -8 -8 -9 -9 -9 -9 -9 -9 -9 -9 -8 -8 -8 -8 -8 -8 -8 -7 -7 -7 -7 -7 -7
-5 -5 -5 -5 -4 -3 -6 -6 -6 -5 -6 -6 -6 -6 -7 -7 -8 -8 -8 -9 -9 -9 -9 -9 -9 -9 -9 -9 -9 -9 -9 -9 -9 -9 -9 -8 -8 -8 -8 -8 -8 -8 -8 -8
-5 -5 -4 -5 -4 -4 -5 -5 -5 -6 -6 -6 -7 -7 -8 -8 -9 -9 -9 -9 -9 -9 -9 -9 -10 -10 -9 -10 -10 -10 -9 -9 -9 -9 -9 -9 -8 -8 -8 -8 -8 -8 -8 -8
-5 -5 -5 -6 -5 -5 -5 -5 -6 -6 -7 -7 -8 -8 -8 -9 -9 -9 -10 -10 -10 -10 -10 -10 -10 -10 -10 -10 -10 -10 -10 -10 -10 -9 -9 -9 -9 -9 -9 -9 -9 -9 -9 -9
-5 -6 -6 -7 -6 -6 -6 -6 -6 -7 -7 -8 -8 -8 -9 -9 -10 -10 -10 -10 -10 -10 -10 -10 -10 -10 -10 -10 -10 -10 -10 -10 -10 -10 -10 -10 -9 -9 -9 -9 -9 -9 -9 -9
-6 -7 -7 -6 -6 -7 -6 -6 -7 -8 -8 -8 -8 -9 -9 -10 -10 -10 -10 -10 -10 -11 -10 -10 -10 -11 -10 -10 -10 -10 -10 -11 -11 -10 -10 -10 -10 -10 -10 -10 -10 -10 -10 -10
Wind_Speed
1 0 0 1 2 4 5 6 8 6 1 3 8 10 7 4 4 4 3 1 1 1 1 2 2 2 3 3 3 3 3 3 3 3 3 3 3 3 3 4 4 4 4 3
1 1 2 3 3 4 5 7 7 5 3 5 7 11 8 5 5 3 2 1 1 1 2 2 1 2 2 2 3 3 3 3 3 2 2 2 2 2 2 3 4 4 3 3
1 1 2 2 3 4 4 4 5 6 7 6 6 8 5 3 2 2 1 1 0 0 1 1 2 2 3 3 3 3 3 3 4 4 3 3 2 2 2 3 2 3 4 3
1 0 1 2 3 3 4 2 5 6 6 4 2 6 4 3 4 3 2 1 1 1 1 1 2 3 3 4 3 3 3 3 3 4 2 3 2 3 3 3 3 3 4 3
1 1 1 2 2 3 3 5 5 5 5 6 5 5 6 3 3 2 1 1 1 0 0 1 2 2 3 3 3 3 3 3 3 4 3 3 3 3 3 3 3 3 3 3
2 1 1 2 2 2 4 5 5 4 3 5 6 6 6 2 3 2 1 1 1 1 0 1 2 2 2 3 3 3 3 4 3 3 3 3 3 4 4 4 4 3 3 3
3 4 2 1 2 1 2 2 2 2 3 5 2 4 6 1 1 2 2 1 1 2 1 2 2 2 3 4 3 3 3 4 4 4 3 4 4 4 4 4 4 4 3 3
4 3 4 1 0 1 2 1 1 3 4 3 2 5 3 3 3 3 2 1 2 2 3 3 3 2 3 4 4 3 3 4 4 5 5 4 4 3 3 4 4 4 3 4
3 2 3 2 1 1 2 1 1 2 4 5 6 4 1 2 2 2 1 1 2 2 3 4 4 3 3 4 4 4 4 4 5 6 6 5 4 4 4 4 4 4 4 4
3 4 2 2 1 2 2 1 1 2 3 5 7 5 3 2 2 1 0 1 2 3 4 4 4 3 3 3 4 4 4 4 5 5 5 6 4 4 4 4 4 4 4 5
1 3 2 2 5 5 3 3 4 4 4 4 5 4 1 3 3 2 2 1 1 2 3 3 4 3 4 4 4 4 4 5 5 5 6 6 5 5 4 4 4 5 4 5
0 2 5 4 1 2 2 4 5 4 5 4 4 5 2 4 3 2 0 1 1 2 3 4 4 4 5 5 5 5 5 5 5 5 6 6 6 5 5 5 5 5 5 5
1 2 3 3 1 1 2 3 4 2 2 4 5 6 2 3 2 2 2 2 2 3 4 4 4 5 5 6 6 6 6 6 6 6 6 6 6 5 5 6 5 5 5 5
1 3 6 7 4 1 4 5 6 5 5 6 9 10 5 3 3 4 4 3 2 3 4 5 5 5 5 6 6 7 7 6 7 6 6 7 7 7 6 6 6 5 5 5
2 4 7 10 9 8 10 9 9 11 10 9 9 10 9 5 5 4 3 3 3 4 5 5 6 6 6 7 7 7 7 7 7 7 7 7 7 7 7 6 6 5 5 6
2 4 4 8 9 9 11 11 12 12 12 14 15 15 8 5 3 3 3 4 5 5 5 6 7 7 7 7 8 8 8 8 7 7 7 7 7 7 7 6 6 6 6 5
4 4 3 6 3 6 8 9 10 7 7 7 11 9 4 4 4 4 3 4 4 6 6 7 7 7 7 7 8 8 8 8 8 8 7 7 7 7 7 7 6 6 6 6
4 3 3 4 3 7 6 1 3 6 6 5 4 4 3 4 5 4 2 2 4 5 7 7 7 7 7 7 8 8 8 8 8 7 7 7 8 8 7 7 6 6 6 6
4 5 4 3 5 8 3 0 1 2 5 2 3 4 4 5 6 3 2 3 3 4 5 6 6 7 7 8 8 8 7 7 7 8 8 8 8 8 8 7 7 6 6 6
1 3 4 4 5 6 3 1 1 1 4 2 1 3 3 4 5 4 4 5 5 5 4 5 6 6 7 8 7 7 7 7 8 8 8 8 8 8 8 8 7 6 6 6
2 3 6 7 6 6 1 1 1 1 4 3 2 3 2 3 4 5 5 5 4 5 5 5 5 6 6 7 7 7 7 7 8 8 9 9 8 8 8 7 6 6 5 5
5 4 5 4 6 6 2 2 2 3 3 3 3 3 3 4 4 5 5 5 5 5 5 5 5 6 6 6 7 8 8 8 8 8 8 9 9 7 7 6 6 5 4 4
6 6 4 6 6 2 2 2 2 1 3 3 3 4 4 4 5 6 5 5 5 5 6 5 5 7 6 6 6 7 8 8 8 8 8 8 9 7 6 5 5 5 4 3
4 2 3 5 6 3 3 2 2 2 2 3 3 4 3 4 5 6 6 5 5 5 6 5 6 7 7 7 7 7 8 8 8 8 8 8 7 7 6 5 4 4 4 4
2 3 3 6 5 4 3 3 3 3 3 4 4 3 3 4 5 5 6 6 5 6 6 5 6 7 8 7 7 7 7 7 7 7 7 7 6 6 5 5 4 5 4 5
2 4 4 5 3 3 5 3 2 2 4 4 4 4 4 4 5 5 5 5 5 6 6 6 6 7 7 7 7 7 7 7 7 7 7 6 5 5 4 4 5 8 7 9
Wind_Direction
161 76 282 285 260 285 300 294 290 297 0 288 260 267 264 245 242 240 217 212 231 239 63 78 79 40 0 2 353 347 348 343 346 345 343 346 337 329 340 347 348 346 352 352
187 239 289 312 315 293 285 286 288 297 340 297 284 279 268 232 222 219 211 232 250 19 32 23 32 32 358 344 343 330 338 332 329 323 316 302 307 307 321 334 332 336 350 352
212 39 354 332 323 297 271 272 294 301 310 267 280 284 234 198 185 182 169 191 17 338 352 348 348 349 349 333 331 322 320 325 330 330 329 327 327 320 333 334 318 333 336 340
258 293 319 294 294 299 274 347 309 302 309 285 258 289 256 195 197 203 201 185 176 47 13 339 335 343 346 337 340 326 320 326 326 329 333 328 313 306 302 305 305 313 319 315
281 84 328 279 306 298 291 324 296 282 273 286 252 252 274 166 215 223 177 146 138 123 205 324 336 324 336 338 337 326 326 323 327 325 325 312 302 299 302 308 311 299 303 305
239 110 349 327 327 303 302 290 259 252 249 266 227 215 270 200 231 216 160 99 64 63 41 347 341 335 337 335 326 325 326 325 321 317 322 311 305 307 308 309 305 294 286 295
235 180 139 4 308 231 303 319 307 278 231 245 194 216 248 194 92 123 140 113 45 23 11 335 334 334 324 325 322 317 320 322 324 317 314 306 301 296 292 291 294 296 291 291
290 257 149 139 37 316 277 270 215 261 274 296 269 238 234 141 103 84 89 82 40 13 357 343 339 351 343 337 329 316 317 321 320 316 307 300 297 289 286 293 292 284 280 278
305 284 95 108 14 317 281 234 348 290 292 284 259 237 237 116 107 103 102 73 30 3 6 5 357 3 354 343 337 332 333 328 324 320 315 305 302 300 298 297 295 291 288 287
319 283 214 140 183 256 290 298 184 212 262 271 272 252 238 190 217 180 75 339 0 12 7 2 354 354 351 340 336 336 330 317 319 319 313 307 301 300 298 298 296 293 292 297
291 258 248 202 209 206 181 212 224 246 248 252 280 278 75 154 167 188 224 275 352 1 356 348 346 346 345 340 335 337 336 329 325 319 311 311 304 301 301 296 292 290 288 286
218 267 260 238 79 23 207 214 190 212 245 232 260 274 84 111 117 121 84 7 14 11 354 344 344 351 350 344 341 340 338 332 326 318 313 308 306 300 299 296 293 292 287 281
164 218 279 274 291 342 258 240 224 232 279 243 239 255 127 97 82 50 11 352 358 3 355 348 350 351 346 341 338 333 332 330 327 322 318 313 310 303 297 294 294 292 291 284
209 229 224 243 271 238 246 235 212 201 222 244 238 256 273 295 334 339 335 330 346 351 348 345 344 343 341 338 332 330 328 326 321 317 311 310 309 306 296 291 291 290 290 286
184 247 253 266 276 273 262 249 218 215 223 236 255 265 282 302 307 310 311 325 341 341 342 341 336 333 334 333 329 326 322 321 319 315 309 302 305 306 304 296 293 293 291 288
216 254 281 275 260 262 268 259 242 236 238 247 263 273 285 299 321 342 333 334 334 333 333 330 328 326 326 324 322 321 320 319 316 309 306 307 302 304 306 300 296 294 289 285
217 225 249 272 296 305 271 250 231 226 224 227 249 262 316 324 328 318 323 335 333 332 330 325 321 318 317 315 314 311 310 312 310 307 307 308 305 300 301 304 301 297 293 288
205 215 237 273 304 253 247 131 186 221 244 232 249 286 325 320 311 296 313 336 336 333 329 326 323 320 315 311 309 309 308 308 307 309 310 310 309 305 302 300 295 292 289 285
203 207 238 250 259 269 264 227 134 217 270 258 254 290 326 334 318 294 23 12 342 327 319 314 311 309 311 312 312 313 313 313 313 313 312 311 310 306 302 298 294 291 288 288
223 210 231 243 253 255 274 41 24 94 273 349 329 290 310 337 311 291 352 350 336 329 318 313 313 313 313 314 316 315 312 313 311 312 311 307 303 301 298 295 292 290 286 286
191 215 224 240 249 260 276 96 80 224 278 336 324 298 291 267 263 292 321 327 321 313 312 317 319 315 311 314 318 313 311 308 308 310 310 309 305 299 295 293 293 291 292 290
190 203 213 222 236 254 121 118 203 252 325 326 323 315 300 296 296 302 308 312 314 314 315 318 315 311 311 314 316 311 309 310 312 311 311 309 308 305 303 297 299 299 294 292
205 206 214 215 234 287 174 211 257 309 298 303 305 303 292 293 296 302 305 305 306 305 308 310 305 305 308 311 312 307 309 316 318 317 313 310 313 315 313 309 310 310 307 302
224 199 237 264 268 282 252 257 298 304 296 309 312 307 300 294 296 301 303 305 306 303 305 306 307 306 308 311 313 308 311 318 318 317 315 314 316 317 317 313 310 308 306 307
224 179 233 258 278 305 271 269 294 310 320 318 318 308 298 298 297 298 301 301 303 305 305 303 303 302 304 311 315 317 318 320 316 314 313 315 315 313 318 321 315 311 299 301
200 197 212 244 261 263 283 298 302 300 301 303 307 308 309 298 294 299 298 299 303 305 307 306 304 304 306 310 311 313 315 318 317 317 318 316 314 318 320 322 324 325 324 322
Height
1510 1513 1516 1515 1514 1513 1512 1511 1510 1506 1506 1508 1506 1503 1502 1502 1503 1503 1503 1505 1506 1506 1507 1507 1506 1506 1506 1505 1504 1504 1504 1504 1504 1503 1503 1503 1503 1503 1504 1504 1505 1505 1505 1507
1512 1516 1515 1513 1513 1512 1511 1512 1510 1506 1506 1507 1506 1502 1498 1498 1499 1500 1501 1502 1503 1504 1504 1504 1504 1504 1503 1503 1502 1502 1501 1502 1502 1501 1501 1501 1501 1501 1501 1501 1502 1502 1502 1503
1513 1516 1514 1514 1514 1513 1512 1513 1513 1512 1509 1506 1509 1501 1495 1495 1496 1498 1499 1500 1501 1502 1502 1502 1502 1502 1501 1501 1500 1500 1499 1499 1499 1499 1499 1499 1498 1498 1498 1498 1498 1499 1499 1499
1514 1515 1515 1515 1515 1515 1514 1513 1513 1513 1515 1511 1507 1510 1494 1494 1495 1496 1497 1499 1500 1500 1501 1501 1501 1500 1499 1498 1498 1497 1497 1496 1496 1496 1496 1495 1495 1494 1494 1495 1495 1495 1496 1496
1515 1516 1516 1516 1516 1516 1515 1514 1514 1514 1515 1516 1509 1512 1497 1493 1495 1496 1496 1497 1498 1499 1499 1499 1499 1498 1498 1496 1495 1495 1494 1494 1494 1493 1493 1493 1492 1492 1492 1492 1491 1492 1492 1492
1516 1516 1517 1517 1517 1516 1516 1514 1513 1515 1516 1518 1505 1509 1498 1496 1495 1494 1495 1496 1496 1497 1497 1497 1497 1496 1495 1494 1493 1492 1491 1491 1491 1490 1490 1490 1489 1489 1488 1488 1488 1488 1488 1488
1514 1516 1517 1518 1518 1517 1518 1519 1518 1515 1516 1507 1500 1503 1500 1495 1493 1492 1494 1495 1495 1496 1496 1495 1495 1494 1493 1492 1490 1489 1488 1488 1487 1487 1486 1486 1486 1486 1485 1484 1484 1484 1483 1483
1515 1515 1518 1519 1520 1521 1519 1519 1523 1522 1510 1501 1502 1501 1496 1492 1492 1492 1493 1494 1494 1495 1494 1494 1493 1492 1491 1489 1488 1487 1485 1484 1485 1484 1483 1483 1483 1482 1481 1481 1480 1480 1479 1479
1518 1517 1519 1519 1519 1520 1519 1520 1520 1523 1518 1518 1502 1495 1495 1493 1493 1493 1494 1494 1494 1494 1493 1492 1491 1489 1488 1487 1486 1484 1482 1481 1481 1480 1479 1479 1478 1478 1477 1476 1476 1475 1475 1475
1520 1523 1519 1519 1520 1521 1521 1520 1524 1524 1523 1514 1497 1490 1493 1496 1495 1494 1494 1493 1493 1492 1491 1490 1489 1488 1486 1485 1484 1481 1479 1478 1477 1476 1476 1475 1474 1473 1472 1472 1471 1471 1470 1470
1521 1525 1521 1520 1520 1519 1522 1523 1521 1520 1517 1516 1508 1498 1491 1491 1492 1493 1493 1492 1492 1491 1490 1489 1488 1486 1484 1483 1482 1479 1477 1475 1474 1473 1472 1471 1470 1469 1468 1467 1466 1466 1466 1466
1521 1524 1522 1517 1515 1515 1516 1517 1520 1524 1519 1514 1513 1505 1490 1490 1490 1491 1492 1491 1491 1490 1489 1488 1486 1484 1482 1480 1478 1476 1474 1472 1471 1470 1468 1467 1466 1464 1463 1462 1461 1461 1461 1461
1522 1525 1523 1516 1520 1520 1518 1516 1517 1519 1521 1516 1513 1502 1491 1490 1491 1491 1491 1491 1490 1488 1487 1486 1484 1482 1480 1478 1476 1473 1471 1469 1467 1466 1464 1463 1461 1460 1458 1457 1457 1457 1456 1456
1520 1523 1522 1515 1508 1514 1517 1515 1515 1519 1521 1514 1504 1495 1491 1491 1491 1491 1490 1490 1489 1488 1486 1484 1482 1480 1478 1476 1473 1470 1468 1466 1464 1462 1460 1459 1457 1456 1455 1454 1453 1452 1451 1451
1520 1522 1517 1512 1508 1509 1508 1508 1510 1513 1510 1508 1497 1493 1490 1490 1490 1490 1489 1488 1487 1486 1484 1483 1481 1478 1475 1472 1470 1467 1465 1463 1461 1459 1457 1455 1453 1452 1450 1449 1448 1447 1446 1446
1520 1520 1516 1513 1506 1506 1504 1501 1501 1502 1502 1500 1495 1492 1489 1489 1489 1488 1488 1487 1485 1484 1483 1481 1479 1476 1473 1470 1467 1464 1461 1459 1457 1455 1452 1451 1449 1448 1446 1445 1444 1442 1441 1440
1518 1519 1518 1511 1506 1506 1503 1495 1495 1495 1493 1494 1493 1490 1488 1488 1488 1487 1487 1486 1485 1483 1481 1479 1476 1474 1471 1468 1465 1461 1458 1456 1453 1451 1449 1447 1445 1443 1442 1441 1439 1438 1436 1435
1516 1517 1516 1512 1511 1510 1492 1488 1488 1490 1489 1489 1488 1488 1488 1488 1487 1486 1485 1484 1482 1481 1479 1476 1474 1471 1468 1465 1462 1458 1455 1452 1449 1447 1444 1443 1441 1439 1437 1436 1435 1433 1432 1431
1512 1514 1514 1511 1506 1496 1488 1489 1490 1491 1490 1487 1487 1487 1487 1486 1484 1483 1482 1481 1481 1479 1477 1474 1471 1468 1465 1462 1458 1455 1452 1449 1446 1444 1441 1439 1437 1435 1433 1432 1430 1429 1428 1426
1512 1512 1514 1508 1505 1499 1489 1491 1488 1491 1491 1486 1485 1485 1485 1485 1486 1482 1480 1479 1477 1475 1473 1470 1467 1465 1462 1459 1456 1452 1449 1446 1443 1441 1438 1436 1434 1432 1430 1428 1426 1425 1424 1422
1513 1513 1512 1508 1502 1494 1491 1490 1490 1494 1488 1485 1483 1483 1484 1484 1483 1481 1478 1476 1474 1472 1470 1467 1464 1462 1459 1456 1453 1449 1446 1443 1441 1438 1435 1433 1430 1428 1426 1424 1422 1420 1419 1418
1507 1508 1507 1504 1501 1494 1490 1489 1491 1489 1485 1483 1482 1482 1481 1480 1479 1477 1475 1473 1471 1469 1467 1464 1461 1458 1456 1453 1450 1446 1443 1440 1438 1435 1432 1429 1427 1424 1422 1420 1418 1417 1415 1414
1499 1498 1496 1496 1492 1487 1485 1485 1485 1485 1483 1482 1481 1479 1478 1477 1475 1473 1472 1470 1468 1466 1464 1461 1458 1455 1452 1450 1447 1443 1440 1437 1434 1431 1428 1426 1423 1421 1419 1417 1415 1414 1412 1411
1493 1492 1493 1492 1486 1484 1484 1483 1482 1482 1481 1479 1478 1477 1475 1474 1472 1470 1469 1467 1465 1462 1460 1457 1455 1451 1449 1446 1444 1441 1437 1434 1431 1428 1425 1423 1420 1418 1416 1415 1413 1412 1410 1409
1489 1491 1491 1490 1485 1483 1481 1480 1480 1478 1477 1476 1475 1474 1473 1471 1469 1467 1465 1463 1461 1459 1457 1454 1452 1448 1445 1443 1440 1438 1435 1431 1428 1425 1423 1420 1418 1416 1414 1412 1411 1410 1408 1408
1486 1488 1489 1485 1482 1482 1479 1477 1477 1475 1474 1473 1471 1470 1469 1468 1466 1464 1462 1460 1458 1456 1454 1451 1448 1445 1442 1440 1437 1435 1432 1429 1426 1423 1420 1418 1416 1414 1412 1410 1408 1407 1407 1405